When you browse on this site, cookies collect data to enhance your experience and personalize the content and advertising you see.
Visit our Privacy Policy to learn more. By continuing to use the site, you agree to this use of cookies and data.
  • In Hungary
  • List of Countries
  • For 7 days
  • Water Temperature
  • Satellite Maps
  • Weather Map
  • News
  • Weather Widgets
  • user-avatar
    Login

    Hourly Weather Sucre

    Today, 17 December, Monday

    Time Temperature Precipitation Wind Pressure Humidity
    00:00 +15°C° 0.9 mm 1 mps 541 mmHg 82%
    01:00 +14°C° 0.9 mm 1 mps 540 mmHg 84%
    02:00 +14°C° 0 mm 1 mps 540 mmHg 86%
    03:00 +14°C° 0.7 mm 2 mps 540 mmHg 87%
    04:00 +13°C° 0.7 mm 2 mps 540 mmHg 88%
    05:00 +13°C° 0.7 mm 2 mps 540 mmHg 89%
    06:00 +14°C° 0.8 mm 2 mps 540 mmHg 87%
    07:00 +14°C° 0.8 mm 2 mps 540 mmHg 85%
    08:00 +14°C° 0.8 mm 2 mps 541 mmHg 83%
    09:00 +14°C° 0.6 mm 3 mps 541 mmHg 80%
    10:00 +14°C° 0.6 mm 3 mps 541 mmHg 76%
    11:00 +16°C° 0.6 mm 3 mps 542 mmHg 72%
    12:00 +17°C° 0.7 mm 3 mps 541 mmHg 69%
    13:00 +17°C° 0.7 mm 3 mps 541 mmHg 66%
    14:00 +18°C° 0.7 mm 3 mps 541 mmHg 63%
    15:00 +18°C° 0.3 mm 3 mps 541 mmHg 63%
    16:00 +18°C° 0.3 mm 3 mps 541 mmHg 63%
    17:00 +18°C° 0.3 mm 3 mps 540 mmHg 63%
    18:00 +17°C° 0.4 mm 3 mps 540 mmHg 67%
    19:00 +16°C° 0.4 mm 2 mps 540 mmHg 71%
    20:00 +16°C° 0.4 mm 2 mps 540 mmHg 76%
    21:00 +15°C° 0.2 mm 2 mps 540 mmHg 78%
    22:00 +15°C° 0.2 mm 2 mps 540 mmHg 81%
    23:00 +14°C° 0.2 mm 2 mps 540 mmHg 84%

    Tomorrow, 18 December, Tuesday

    Time Temperature Precipitation Wind Pressure Humidity
    00:00 +14°C° 0.1 mm 2 mps 540 mmHg 86%
    01:00 +14°C° 0.1 mm 2 mps 539 mmHg 87%
    02:00 +13°C° 0.1 mm 2 mps 539 mmHg 89%
    03:00 +13°C° 0 mm 2 mps 539 mmHg 90%
    04:00 +13°C° 0 mm 1 mps 539 mmHg 91%
    05:00 +12°C° 0 mm 1 mps 539 mmHg 91%
    06:00 +13°C° 0 mm 1 mps 539 mmHg 86%
    07:00 +14°C° 0 mm 2 mps 540 mmHg 81%
    08:00 +15°C° 0 mm 2 mps 541 mmHg 75%
    09:00 +16°C° 0.1 mm 3 mps 542 mmHg 68%
    10:00 +18°C° 0.1 mm 3 mps 543 mmHg 60%
    11:00 +19°C° 0.1 mm 4 mps 543 mmHg 53%
    12:00 +19°C° 0.7 mm 5 mps 543 mmHg 54%
    13:00 +19°C° 0.7 mm 5 mps 543 mmHg 55%
    14:00 +19°C° 0.7 mm 5 mps 542 mmHg 57%
    15:00 +19°C° 0.5 mm 5 mps 542 mmHg 58%
    16:00 +17°C° 0.5 mm 5 mps 541 mmHg 59%
    17:00 +17°C° 0.5 mm 5 mps 541 mmHg 61%
    18:00 +17°C° 0.5 mm 4 mps 541 mmHg 65%
    19:00 +16°C° 0.5 mm 3 mps 541 mmHg 69%
    20:00 +15°C° 0.5 mm 2 mps 541 mmHg 74%
    21:00 +14°C° 1.1 mm 2 mps 541 mmHg 77%
    22:00 +14°C° 1.1 mm 2 mps 541 mmHg 79%
    23:00 +14°C° 1.1 mm 1 mps 541 mmHg 82%

    Day after tomorrow, 19 December, Wednesday

    Time Temperature Precipitation Wind Pressure Humidity
    00:00 +13°C° 0.7 mm 1 mps 541 mmHg 84%
    01:00 +13°C° 0.7 mm 2 mps 540 mmHg 87%
    02:00 +13°C° 0.7 mm 2 mps 540 mmHg 89%
    03:00 +13°C° 0.6 mm 2 mps 540 mmHg 89%
    04:00 +13°C° 0.6 mm 2 mps 540 mmHg 90%
    05:00 +12°C° 0.6 mm 2 mps 539 mmHg 90%
    06:00 +13°C° 0.3 mm 2 mps 540 mmHg 89%
    07:00 +13°C° 0.3 mm 2 mps 540 mmHg 87%
    08:00 +13°C° 0.3 mm 2 mps 541 mmHg 86%
    09:00 +14°C° 0.2 mm 2 mps 541 mmHg 81%
    10:00 +14°C° 0.2 mm 3 mps 541 mmHg 76%
    11:00 +16°C° 0.2 mm 3 mps 542 mmHg 71%
    12:00 +16°C° 0.2 mm 3 mps 541 mmHg 68%
    13:00 +17°C° 0.2 mm 3 mps 541 mmHg 65%
    14:00 +18°C° 0.2 mm 3 mps 540 mmHg 63%
    15:00 +18°C° 0.2 mm 3 mps 540 mmHg 63%
    16:00 +18°C° 0.2 mm 3 mps 539 mmHg 62%
    17:00 +18°C° 0.2 mm 3 mps 539 mmHg 62%
    18:00 +17°C° 0.3 mm 3 mps 539 mmHg 66%
    19:00 +16°C° 0.3 mm 2 mps 539 mmHg 70%
    20:00 +16°C° 0.3 mm 2 mps 539 mmHg 74%
    21:00 +15°C° 0.3 mm 2 mps 539 mmHg 77%
    22:00 +15°C° 0.3 mm 2 mps 539 mmHg 79%
    23:00 +14°C° 0.3 mm 1 mps 540 mmHg 82%

    20 December, Thursday

    Time Temperature Precipitation Wind Pressure Humidity
    00:00 +14°C° 0.1 mm 1 mps 539 mmHg 83%
    01:00 +13°C° 0.1 mm 1 mps 538 mmHg 85%
    02:00 +13°C° 0.1 mm 1 mps 538 mmHg 86%
    03:00 +13°C° 0 mm 1 mps 538 mmHg 87%
    04:00 +12°C° 0 mm 1 mps 537 mmHg 88%
    05:00 +12°C° 0 mm 1 mps 537 mmHg 88%
    06:00 +14°C° 0 mm 2 mps 538 mmHg 80%
    07:00 +15°C° 0 mm 2 mps 539 mmHg 72%
    08:00 +16°C° 0 mm 2 mps 540 mmHg 64%
    09:00 +18°C° 0 mm 2 mps 541 mmHg 55%
    10:00 +20°C° 0 mm 3 mps 542 mmHg 46%
    11:00 +22°C° 0 mm 3 mps 542 mmHg 38%
    12:00 +24°C° 0 mm 3 mps 542 mmHg 36%
    13:00 +25°C° 0 mm 4 mps 542 mmHg 34%
    14:00 +26°C° 0 mm 4 mps 541 mmHg 32%
    15:00 +25°C° 0.4 mm 4 mps 541 mmHg 37%
    16:00 +23°C° 0.4 mm 5 mps 540 mmHg 41%
    17:00 +22°C° 0.4 mm 5 mps 539 mmHg 45%
    18:00 +20°C° 2.8 mm 4 mps 539 mmHg 54%
    19:00 +18°C° 2.8 mm 3 mps 539 mmHg 64%
    20:00 +16°C° 2.8 mm 3 mps 538 mmHg 73%
    21:00 +16°C° 2 mm 2 mps 539 mmHg 75%
    22:00 +16°C° 2 mm 2 mps 539 mmHg 76%
    23:00 +15°C° 2 mm 2 mps 539 mmHg 78%

    21 December, Friday

    Time Temperature Precipitation Wind Pressure Humidity
    00:00 +15°C° 0.5 mm 2 mps 539 mmHg 79%
    01:00 +15°C° 0.5 mm 2 mps 539 mmHg 81%
    02:00 +14°C° 0.5 mm 1 mps 538 mmHg 82%
    03:00 +14°C° 0.1 mm 1 mps 538 mmHg 84%
    04:00 +14°C° 0.1 mm 1 mps 538 mmHg 85%
    05:00 +14°C° 0.1 mm 1 mps 538 mmHg 87%
    06:00 +14°C° 0.1 mm 1 mps 539 mmHg 81%
    07:00 +15°C° 0.1 mm 1 mps 540 mmHg 76%
    08:00 +16°C° 0.1 mm 1 mps 540 mmHg 70%
    09:00 +18°C° 0.6 mm 1 mps 541 mmHg 64%
    10:00 +19°C° 0.6 mm 2 mps 541 mmHg 58%
    11:00 +20°C° 0.6 mm 2 mps 542 mmHg 53%
    12:00 +21°C° 0.6 mm 3 mps 542 mmHg 51%
    13:00 +21°C° 0.6 mm 3 mps 541 mmHg 50%
    14:00 +22°C° 0.6 mm 4 mps 541 mmHg 48%
    15:00 +21°C° 0.7 mm 4 mps 541 mmHg 52%
    16:00 +20°C° 0.7 mm 5 mps 540 mmHg 57%
    17:00 +19°C° 0.7 mm 5 mps 540 mmHg 61%
    18:00 +18°C° 1.2 mm 4 mps 540 mmHg 66%
    19:00 +17°C° 1.2 mm 3 mps 540 mmHg 72%
    20:00 +16°C° 1.2 mm 2 mps 540 mmHg 77%
    21:00 +16°C° 1.2 mm 2 mps 540 mmHg 79%
    22:00 +15°C° 1.2 mm 1 mps 540 mmHg 81%
    23:00 +15°C° 1.2 mm 1 mps 540 mmHg 84%

    22 December, Saturday

    Time Temperature Precipitation Wind Pressure Humidity
    00:00 +15°C° 0.7 mm 1 mps 540 mmHg 84%
    01:00 +14°C° 0.7 mm 1 mps 539 mmHg 85%
    02:00 +14°C° 0.7 mm 1 mps 539 mmHg 86%
    03:00 +14°C° 0.2 mm 1 mps 539 mmHg 86%
    04:00 +14°C° 0.2 mm 1 mps 539 mmHg 87%
    05:00 +14°C° 0.2 mm 1 mps 539 mmHg 87%
    06:00 +14°C° 0.2 mm 1 mps 539 mmHg 85%
    07:00 +15°C° 0.2 mm 1 mps 540 mmHg 82%
    08:00 +15°C° 0.2 mm 1 mps 540 mmHg 80%
    09:00 +16°C° 0.5 mm 1 mps 541 mmHg 74%
    10:00 +18°C° 0.5 mm 1 mps 541 mmHg 68%
    11:00 +19°C° 0.5 mm 2 mps 542 mmHg 62%
    12:00 +19°C° 1 mm 2 mps 541 mmHg 59%
    13:00 +20°C° 1 mm 2 mps 541 mmHg 57%
    14:00 +21°C° 1 mm 3 mps 541 mmHg 54%
    15:00 +21°C° 1 mm 3 mps 540 mmHg 56%
    16:00 +20°C° 1 mm 3 mps 540 mmHg 58%
    17:00 +20°C° 1 mm 3 mps 539 mmHg 59%
    18:00 +19°C° 1.6 mm 3 mps 539 mmHg 65%
    19:00 +18°C° 1.6 mm 3 mps 539 mmHg 71%
    20:00 +16°C° 1.6 mm 2 mps 540 mmHg 77%
    21:00 +16°C° 1.1 mm 2 mps 540 mmHg 79%
    22:00 +15°C° 1.1 mm 2 mps 540 mmHg 81%
    23:00 +15°C° 1.1 mm 1 mps 540 mmHg 83%
    Show more